STARLINK-36957, 67989

Orbit data source: Space-Track

STARLINK-36957, 67989 is a payload satellite owned by SpaceX/Seattle (US) in LEO that was launched on Fri, 27 Feb 2026 UTC via an FALCON 9 launch vehicle from the Air Force Eastern Test Range (AFETR). Payload-class satellites include a variety of spacecraft equipped with specific instruments for various scientific and technological missions. These include communications satellites like Starlink; space stations such as the ISS; scientific satellites like the Hubble; Earth observation satellites from companies like Planet Labs, Umbra, and HawkEye 360; GPS; miniature CubeSats for education and research; and military/defense satellites.

Loading next visibility...
Identifier
67989, 2026-039D
Orbit
LEO
Country
Flag of USUS
Related business
Manufacturer
SpaceX/Seattle
Mission
Operational Commercial Communications
Bus & Motor
STARLINK V2MO, Unknown motor
Mass
575 kg wet, ~530 kg dry
Launch date (UTC)
2026-02-27 (4 months ago)
Launch vehicle
FALCON 9
Launch site
Air Force Eastern Test Range (AFETR)
Object type
Payload
Rocket body
Debris
Shape & HBR
Box + 2 Pan, 17.7 m
Radar Cross Section
36.964 m², Large (>1 m²)

Expand to show TLE details & history
Last TLE update: 18 hours ago

TLE from 18 hours ago
0 STARLINK-36957
1 67989U 26039D   26171.10383550  .00017245  00000-0  63430-3 0  9999
2 67989  43.0006 190.7835 0001188 255.0684 105.0036 15.27601555 17364
Epoch: 2026-06-20T02:29Z
TLE epoch observation values (Epoch: 2026-06-20T02:29:31.387Z)
Latitude
-0.00002°
Longitude
-114.92055°
Altitude
482.971 km
Speed
7.626 km/s
True Right ascension
12h 43m 08s
True Declination
0° 00' 00"
Sunlit
Object was in daylight at epoch
Visualization orbit readout
Latitude
Unknown
Longitude
Unknown
Altitude
Unknown
Speed
Unknown
Apparent Right ascension
Unknown
Apparent Declination
Unknown
Sunlit
N/A
Visualization observer readout
Local Sidereal Time
07:20:15
Azimuth
Unknown
Elevation
Unknown
Doppler factor
Unknown
Orbital elements
Apogee altitude
485.745 km
Perigee altitude
484.114 km
Semi-major axis
6,863.067 km
Eccentricity
0.00012
Inclination
43.0006°
RAAN
190.7835°
Arg. of periapsis
255.0684°
True anomaly
105.01675°
Mean anomaly
105.0036°
Eccentric anomaly
105.01017°
Mean motion
3.81738 °/min
Orbital period
94.31 mins
BSTAR
0.0006343
Loading maneuver chart data...
Computing Atmospheric mass density...
Loading historical data...
Loading historical data...
Loading historical data...
Loading historical data...
Loading historical data...
Loading historical data...
Loading historical data...

Documentation

Showing up to 5 results
|